Location: Northern Prairie Star Party
(53.2167°N, 112.5333°W)
Time: 13:17:32
(UTC-06:00)

Daily predictions for brighter satellites

Satellite Brightness Start Highest point End
(mag) Time Altitude Azimuth Time Altitude Azimuth Time Altitude Azimuth
MetOp-B 4.3 22:12:12 10° SSE 22:17:33 85° WSW 22:22:58 10° NNW
Nadezhda 3 Rocket 4.1 22:11:41 10° N 22:18:04 80° ENE 22:24:27 10° SSE
ATLAS 5 CENTAUR R/B 3.4 22:15:19 10° WNW 22:20:45 39° WSW 22:26:32 10° S
BREEZE-M DEB (TANK) 3.8 22:18:55 10° SW 22:21:43 35° SE 22:28:27 10° E
Terra 2.8 22:17:41 10° SE 22:21:57 34° ENE 22:26:15 10° N
Okean 2 Rocket 4.1 22:21:14 10° SSE 22:25:06 30° E 22:28:56 10° NNE
ARGOS 3.2 22:21:19 10° SSE 22:26:39 76° ENE 22:32:03 10° NNW
CZ-4B R/B 3.9 22:23:18 10° NNE 22:28:08 43° E 22:32:48 10° S
Sich 1 Rocket 3.7 22:23:59 10° S 22:28:33 72° E 22:33:09 10° NNE
Cosmos 909 Rocket 4.5 22:22:24 10° SSW 22:29:05 68° ESE 22:37:23 10° NE
Cosmos 1850 Rocket 4.4 22:27:01 10° NNW 22:32:16 57° ENE 22:37:31 10° SE
Elektron 3 4.3 22:29:51 10° WNW 22:32:40 49° SW 22:35:56 10° SE
Cosmos 2278 Rocket 3.1 22:28:03 10° SSE 22:32:49 28° ESE 22:37:37 10° NE
Cosmos 1833 Rocket 3.5 22:27:46 10° NNW 22:33:07 41° NE 22:38:25 10° ESE
Gbstr 26 Del rocket 3.3 22:28:17 10° W 22:33:49 77° S 22:38:16 10° E
CZ-4C R/B 3.8 22:30:34 10° SE 22:34:17 48° ENE 22:38:15 10° N
Cosmos 1825 2.6 22:30:48 10° SSE 22:34:28 46° E 22:38:09 10° NNE
USA 234 4.2 22:29:39 10° ENE 22:34:49 24° SE 22:39:57 10° S
Cosmos 1844 4.2 22:29:44 10° S 22:35:06 42° ESE 22:40:32 10° NE
Cosmos 676 Rocket 4.3 22:30:10 10° NNW 22:35:21 68° WSW 22:40:30 10° SSE
Cosmos 1782 4.2 22:34:07 10° NNW 22:37:53 39° W 22:41:38 10° SSW
Cosmos 2341 Rocket 4.1 22:34:18 10° S 22:40:32 64° E 22:46:44 10° NNE
Cosmos 1184 Rocket 3.5 22:37:55 10° SSE 22:41:01 36° E 22:44:08 10° NNE
Meteor 1-27 Rocket 4.1 22:36:21 10° NNW 22:41:56 65° W 22:47:24 10° S
Cosmos 1461 3.3 22:38:22 10° SW 22:43:01 76° NW 22:47:30 10° NE
Cosmos 1954 Rocket 4.2 22:37:49 10° NNW 22:43:01 73° WSW 22:48:13 10° SSE
Cosmos 2056 Rocket 3.5 22:38:15 10° SSW 22:43:26 90° WNW 22:48:36 10° NNE
Cosmos 1174 4.4 22:40:39 10° NW 22:43:57 37° WSW 22:46:50 10° S
COSMOS 2487 2.6 22:40:32 10° NNW 22:44:11 80° WSW 22:47:48 10° SSE
Timation 2 Rocket 3.9 22:38:20 10° NNW 22:44:26 83° NE 22:50:18 11° SE
Cosmos 1371 Rocket 4.4 22:40:11 10° SW 22:45:30 70° WNW 22:50:47 10° NNE
Cosmos 2082 Rocket 2.6 22:40:17 10° NNW 22:45:57 57° NE 22:51:28 10° SE
Cosmos 1844 Rocket 2.7 22:40:25 10° SSW 22:45:58 62° ESE 22:51:33 10° NE
Cosmos 1782 Rocket 3.7 22:45:43 10° S 22:50:05 59° E 22:54:31 10° NNE
Cosmos 1741 Rocket 4.1 22:45:00 10° NNW 22:50:17 72° ENE 22:55:12 12° SSE
Coronas F rocket 4.0 22:48:31 10° SW 22:50:39 21° WNW 22:52:48 10° NNW
COS B Rocket 4.2 22:47:34 10° N 22:51:50 54° W 22:55:49 10° SSW
YAOGAN 6 3.8 22:50:31 10° SSW 22:53:48 37° W 22:57:07 10° NNW
Cosmos 1408 2.5 22:51:09 10° S 22:54:49 76° E 22:58:29 10° NNE
CZ-4 R/B 4.0 22:50:37 10° NNE 22:55:17 54° ESE 22:59:52 10° S
IGS 5A 3.7 22:54:28 12° SSE 22:58:14 56° ENE 23:02:20 10° N
Cosmos 1606 4.2 22:55:45 10° NNW 22:59:23 36° W 23:03:00 10° SSW
Cosmos 1975 Rocket 3.3 22:55:36 10° NNW 22:59:55 70° W 23:04:13 10° S
DNEPR-1 R/B 4.2 22:54:45 10° NW 23:00:40 72° SW 23:04:57 13° SSE
Cosmos 2263 Rocket 3.9 22:55:57 10° WSW 23:01:12 38° NW 23:06:28 10° NNE
SL-8 R/B 4.4 22:57:29 10° SW 23:01:45 32° SSE 23:06:01 10° E
Okean 3 4.2 23:01:46 10° NNW 23:06:00 52° W 23:10:09 10° S
SL-08 RB Rocket 4.2 23:03:32 10° S 23:08:03 59° W 23:12:40 10° NNW
Cosmos 1242 Rocket 2.8 23:04:40 10° NNW 23:08:17 67° W 23:11:41 12° S
SL-8 Rocket 4.1 23:02:28 10° S 23:08:39 63° E 23:14:49 10° NNE
CARTOSAT-1 3.6 23:04:52 13° SSE 23:08:46 81° ENE 23:13:07 10° NNW
Meteor 2-13 Rocket 4.5 23:05:03 10° S 23:11:12 76° E 23:17:23 10° NNE
Okean 1 4.4 23:07:48 10° N 23:11:31 33° ENE 23:14:26 15° SE
Cosmos 1536 Rocket 3.8 23:08:10 10° N 23:12:37 59° ENE 23:16:12 15° SSE
Cosmos 2154 Rocket 4.4 23:07:04 10° SSW 23:13:16 68° WNW 23:19:28 10° N
Cosmos 1908 Rocket 4.3 23:11:15 10° SSW 23:15:34 54° WNW 23:19:57 10° N
USA 229 DEB 3.8 23:09:42 10° NW 23:16:50 90° SSW 23:23:13 14° SE
USA 229 3.8 23:09:48 10° NW 23:16:56 90° SSE 23:23:20 14° SE
H-2A R/B 2.3 23:17:21 12° S 23:22:26 74° WSW 23:27:47 10° NNW
NOSS 2-2 (D) 3.9 23:19:00 10° SW 23:23:23 82° NW 23:28:51 10° NE
Cosmos 2151 Rocket 3.8 23:26:22 15° S 23:30:01 57° E 23:34:30 10° NNE
Meteor 2-8 Rocket 4.5 23:24:37 10° N 23:30:48 85° ENE 23:36:00 15° SSE
Cosmos 1420 Rocket 4.0 23:27:04 10° S 23:32:14 62° ESE 23:37:25 10° NNE
NOSS 3-1 (A) 4.4 23:27:57 10° NW 23:34:58 59° NNE 23:42:50 10° ESE
NOSS 2-2 (C) 4.2 23:33:44 10° WSW 23:38:08 68° NW 23:43:39 10° NE
SAR-Lupe-2 3.6 23:36:46 19° S 23:39:12 74° WSW 23:42:48 10° NNW
Cosmos 864 Rocket 4.5 23:35:38 12° S 23:41:15 73° E 23:47:25 10° NNE
Meteor 1-18 Rocket 4.4 23:35:58 10° NNW 23:41:51 82° W 23:46:38 16° S
Meteor 1-25 Rocket 4.5 23:38:22 16° S 23:43:02 57° E 23:48:46 10° NNE
Cosmos 2366 rocket 4.0 23:40:48 11° S 23:46:48 83° E 23:53:11 10° NNE
Cosmos 1452 Rocket 4.0 23:41:35 10° SW 23:46:49 65° WNW 23:52:06 10° NNE
ALOS 2 4.0 23:44:55 14° ESE 23:47:57 29° ENE 23:51:45 10° N
ASTEX 1 3.5 23:43:31 10° N 23:48:26 64° E 23:51:57 19° S
Meteor 1-14 Rocket 4.2 23:42:45 10° SSW 23:48:28 88° W 23:54:07 10° NNE
Cosmos 2084 3.3 23:45:42 10° SSW 23:49:26 50° SE 23:53:11 10° NE
Okean 1-7 Rocket 3.8 23:47:52 10° N 23:52:24 63° ENE 23:55:12 22° SSE
